"Time","Temp","Dewpoint","Humidity","Pressure","Direction","Speed","Gust","Precip","PrecipRate"
"00:04:56","49.5","44.3","82.2","29.94","150","0","2","0.00","0.00"
"00:08:58","49.2","44.4","83.2","29.94","150","0.1","2.3","0.00","0.00"
"00:14:56","49","44.4","83.8","29.94","150","0.1","1.2","0.00","0.00"
"00:19:58","48.9","44.3","84","29.94","150","0","0","0.00","0.00"
"00:24:57","48.7","44.1","84","29.94","150","0","0","0.00","0.00"
"00:29:59","48.4","44","84.6","29.94","150","0.1","1.2","0.00","0.00"
"00:34:58","48","43.9","85.7","29.94","150","0.1","1.2","0.00","0.00"
"00:39:56","48","44","86","29.94","150","0.1","1.2","0.00","0.00"
"00:44:58","47.8","43.8","86","29.94","150","0","1.2","0.00","0.00"
"00:49:57","47.7","43.8","86.2","29.94","150","0","0","0.00","0.00"
"00:54:59","47.5","43.6","86.3","29.94","150","0","0","0.00","0.00"
"00:59:57","47.1","42.9","85.2","29.94","150","0.2","2.3","0.00","0.00"
"01:04:50","46.5","42.5","86.2","29.94","150","1","2.3","0.00","0.00"
"01:09:59","46","42.5","87.6","29.94","150","0.1","2.3","0.00","0.00"
"01:14:55","45.8","42.4","88","29.94","150","0","1.2","0.00","0.00"
"01:19:56","45.6","42.3","88","29.94","150","0.1","1.2","0.00","0.00"
"01:24:59","45.4","42.1","88.4","29.94","150","0.1","1.2","0.00","0.00"
"01:29:57","45.2","42.2","89","29.94","150","0","0","0.00","0.00"
"01:34:58","45","42.1","89.1","29.94","150","0.1","1","0.00","0.00"
"01:39:59","44.9","42.1","90","29.94","150","1.1","2.3","0.00","0.00"
"01:44:58","44.6","41.8","90","29.94","150","0.3","2.3","0.00","0.00"
"01:49:36","44.5","41.7","90","29.94","150","0","0","0.00","0.00"
"01:54:59","44.2","41.5","90","29.94","150","0","0","0.00","0.00"
"01:59:58","44","41.4","90.4","29.95","150","0.1","1.2","0.00","0.00"
"02:04:41","43.9","41.4","91","29.95","150","0.1","1.2","0.00","0.00"
"02:09:42","43.7","41.2","91","29.95","150","0","0","0.00","0.00"
"02:14:59","43.6","41.4","92","29.95","150","0.4","2.3","0.00","0.00"
"02:19:57","43.6","41.4","92","29.94","150","0.2","2","0.00","0.00"
"02:24:59","43.5","41.3","92","29.94","150","1.2","2.3","0.00","0.00"
"02:29:57","43.3","41.1","92","29.94","150","0.5","2.3","0.00","0.00"
"02:34:56","43.2","41","92","29.94","150","0.1","1.2","0.00","0.00"
"02:39:56","43.1","40.9","92","29.94","150","0","0","0.00","0.00"
"02:44:59","42.8","40.6","92","29.94","150","0","0","0.00","0.00"
"02:49:59","42.6","40.4","92","29.94","150","0","0","0.00","0.00"
"02:54:56","42.4","40.2","92","29.94","150","0","0","0.00","0.00"
"02:59:56","42.3","40.4","93","29.94","150","0.2","2.3","0.00","0.00"
"03:04:58","42.2","40.3","93","29.94","150","0","2.3","0.00","0.00"
"03:09:59","42.1","40.2","93","29.94","150","0.3","2","0.00","0.00"
"03:14:57","42.1","40.2","93","29.94","147","1.5","3.5","0.00","0.00"
"03:18:48","42.1","40.2","93","29.94","146","0.8","3.5","0.00","0.00"
"03:24:59","42","40.1","93","29.94","146","0","1.2","0.00","0.00"
"03:29:56","41.9","40","93","29.94","146","0.1","1","0.00","0.00"
"03:34:39","41.7","39.8","93","29.94","146","1.1","2.3","0.00","0.00"
"03:39:59","41.6","39.9","93.7","29.94","146","0.2","2.3","0.00","0.00"
"03:44:56","41.6","40","94","29.94","146","0","0","0.00","0.00"
"03:49:59","41.5","39.9","93.9","29.94","146","0.7","2.3","0.00","0.00"
"03:54:57","41.3","39.7","93.9","29.94","146","1.7","3.5","0.00","0.00"
"03:59:59","41.3","39.7","94","29.94","146","1.5","3.5","0.00","0.00"
"04:04:58","41.3","39.7","94","29.94","146","0","1.2","0.00","0.00"
"04:09:57","41.2","39.6","94","29.94","146","0","0","0.00","0.00"
"04:14:50","41.1","39.5","94","29.95","146","0","0","0.00","0.00"
"04:19:59","40.9","39.3","94","29.95","146","0","0","0.00","0.00"
"04:24:59","40.8","39.2","94","29.95","146","0","0","0.00","0.00"
"04:29:50","40.6","39","94","29.95","146","0","0","0.00","0.00"
"04:34:38","40.5","38.9","94","29.95","146","0","0","0.00","0.00"
"04:39:56","40.4","38.8","94","29.95","146","0","0","0.00","0.00"
"04:44:56","40.5","39","94.4","29.95","146","0.6","2.3","0.00","0.00"
"04:49:59","40.6","39.3","95","29.95","146","1.1","2.3","0.00","0.00"
"04:54:58","40.6","39.3","95","29.95","146","0.8","2.3","0.00","0.00"
"04:59:56","40.7","39.4","95","29.95","146","0.3","1.2","0.00","0.00"
"05:04:59","40.6","39.2","94.4","29.95","146","0.3","1.2","0.00","0.00"
"05:09:35","40.6","39","94","29.95","146","0","0","0.00","0.00"
"05:14:57","40.5","38.9","94","29.95","146","0","0","0.00","0.00"
"05:19:55","40.3","38.7","94","29.95","146","0","1","0.00","0.00"
"05:24:46","40.1","38.5","94","29.95","146","0","1.2","0.00","0.00"
"05:29:57","40","38.4","94","29.96","146","0","0","0.00","0.00"
"05:34:59","39.8","38.3","94","29.96","146","0","1","0.00","0.00"
"05:39:59","39.9","38.6","95","29.96","146","0.5","2.3","0.00","0.00"
"05:44:50","39.9","38.6","95","29.96","146","0","0","0.00","0.00"
"05:49:57","39.8","38.5","95","29.96","146","0","0","0.00","0.00"
"05:54:59","39.7","38.2","94.2","29.96","146","0","0","0.00","0.00"
"05:59:57","39.6","38.3","95","29.97","146","0","0","0.00","0.00"
"06:04:57","39.5","38.1","94.8","29.97","146","0","0","0.00","0.00"
"06:09:56","39.4","38","94.8","29.97","146","0","0","0.00","0.00"
"06:14:36","39.3","37.9","94.8","29.97","146","0","0","0.00","0.00"
"06:19:30","39.2","37.9","95","29.97","146","0","0","0.00","0.00"
"06:24:36","39.2","37.9","95","29.97","146","0","0","0.00","0.00"
"06:29:59","39.1","37.8","95","29.98","146","0","0","0.00","0.00"
"06:34:46","39.1","37.8","95","29.98","146","0","0","0.00","0.00"
"06:39:56","39.1","37.8","95","29.98","146","0","0","0.00","0.00"
"06:44:36","39.1","37.8","95","29.98","146","0","0","0.00","0.00"
"06:49:57","39.2","37.9","95","29.98","146","0","0","0.00","0.00"
"06:54:59","39.3","38.1","95.3","29.98","146","0","0","0.00","0.00"
"06:59:34","39.3","38","95","29.99","146","0","0","0.00","0.00"
"07:04:40","39.4","38.1","95.2","29.99","146","0","0","0.00","0.00"
"07:09:44","39.5","38.5","96","29.99","146","0.1","1.2","0.00","0.00"
"07:14:56","40","39.1","96.3","29.99","146","0","1.2","0.00","0.00"
"07:19:58","40.7","39.9","97","29.99","146","0","0","0.00","0.00"
"07:24:16","41.3","40.5","97","29.99","146","0.1","1.2","0.00","0.00"
"07:29:46","41.9","41.1","97","29.99","146","0","0","0.00","0.00"
"07:34:56","42.6","41.8","97","29.99","146","0","0","0.00","0.00"
"07:39:39","43.1","42.3","97","29.99","146","0","0","0.00","0.00"
"07:44:50","43.7","42.9","97","29.99","146","0","0","0.00","0.00"
"07:49:56","44.9","44.2","97.5","29.99","146","0","0","0.00","0.00"
"07:54:59","45.6","44.9","97.2","29.99","146","0","0","0.00","0.00"
"07:59:59","46.4","45.8","97.6","29.99","146","0.1","1.2","0.00","0.00"
"08:04:33","47.3","46.8","98","29.99","146","0.2","1.2","0.00","0.00"
"08:09:58","48.8","48.3","98","29.99","146","0.5","2.3","0.00","0.00"
"08:14:58","50","48.9","96.2","30.00","146","0.1","2.3","0.00","0.00"
"08:19:58","51.2","49","92.2","30.00","145","0.5","3","0.00","0.00"
"08:23:58","52.2","49.1","89.1","30.00","147","1.3","3.5","0.00","0.00"
"08:29:56","53.1","49.3","86.9","30.00","149","1.4","3.5","0.00","0.00"
"08:34:15","53.9","49.6","85.1","30.00","150","0.8","2.3","0.00","0.00"
"08:39:41","55","50.1","83.6","30.00","150","0","2","0.00","0.00"
"08:44:59","56","49.8","79.8","30.00","150","1.2","3.5","0.00","0.00"
"08:49:58","57.1","49.7","76.4","30.00","160","1.5","4","0.00","0.00"
"08:54:57","58.2","49.9","73.9","30.00","176","1.9","4","0.00","0.00"
"08:59:56","59.1","49.7","70.9","30.00","167","1.6","3.5","0.00","0.00"
"09:04:38","59.9","49.9","69.5","30.00","158","2","4","0.00","0.00"
"09:09:59","60.7","50","67.8","30.00","171","2.4","5","0.00","0.00"
"09:14:24","61.2","49.3","65.1","30.00","179","2.7","6","0.00","0.00"
"09:19:46","61.6","49.9","65.4","29.99","194","3.1","5","0.00","0.00"
"09:24:48","62.5","49.3","61.9","29.99","202","2.9","6","0.00","0.00"
"09:29:55","63.2","49.3","60.5","29.99","196","2.5","6","0.00","0.00"
"09:34:57","63.9","49","58.3","29.99","164","2.9","6","0.00","0.00"
"09:39:57","64.5","49","57.1","29.99","173","2.5","9","0.00","0.00"
"09:44:48","65","48.6","55.4","29.99","189","3.6","9.2","0.00","0.00"
"09:49:58","65.3","48.9","55.6","29.99","186","2.6","6","0.00","0.00"
"09:54:52","65.7","49.3","55.4","29.99","171","3.5","8","0.00","0.00"
"09:59:58","65.9","47.8","52","29.99","179","3.2","8.1","0.00","0.00"
"10:04:56","66.3","48.6","53.1","29.99","185","2.9","7","0.00","0.00"
"10:09:56","66.8","49.2","53.2","29.99","184","2.8","6","0.00","0.00"
"10:14:59","67.4","47.8","49.4","29.99","163","2.3","5","0.00","0.00"
"10:19:18","67.8","47.9","48.9","29.98","159","1.5","3.5","0.00","0.00"
"10:24:49","68.3","47.6","47.5","29.98","158","1.4","4","0.00","0.00"
"10:29:57","68.8","47.8","47.1","29.98","173","0.6","4","0.00","0.00"
"10:34:43","69.1","46.7","44.6","29.98","200","3","8.1","0.00","0.00"
"10:39:54","69.2","45.2","42.3","29.98","211","3.5","8.1","0.00","0.00"
"10:44:56","69.1","43.6","39.8","29.98","319","2","5","0.00","0.00"
"10:49:54","69.3","45.9","43.1","29.98","233","0.8","3.5","0.00","0.00"
"10:54:57","70","46.6","43.1","29.98","210","3","7","0.00","0.00"
"10:59:56","70.1","46.3","42.6","29.98","173","3","6","0.00","0.00"
"11:04:45","70.1","47.3","44.2","29.98","197","4","11.5","0.00","0.00"
"11:09:57","70.1","47.4","44.3","29.98","191","2.4","6.9","0.00","0.00"
"11:14:57","70.3","46.1","42.1","29.98","190","4.1","11.5","0.00","0.00"
"11:19:54","70.2","47.6","44.5","29.98","200","3.7","8.1","0.00","0.00"
"11:24:56","70.4","46.4","42.3","29.98","205","4.2","9","0.00","0.00"
"11:28:59","70.4","46.8","43.2","29.98","200","4","11","0.00","0.00"
"11:34:28","70.4","45.9","41.6","29.98","183","5","12","0.00","0.00"
"11:39:59","70.2","46.6","43","29.98","201","7.1","12","0.00","0.00"
"11:44:45","70.2","46.6","43","29.98","188","3.1","11.5","0.00","0.00"
"11:49:59","70.6","46.6","42.4","29.98","207","4.4","9.2","0.00","0.00"
"11:54:33","70.8","47.2","43.1","29.98","221","5.6","11.5","0.00","0.00"
"11:59:52","70.9","46.8","42.2","29.98","190","5","11","0.00","0.00"
"12:04:41","71","47.4","43.2","29.98","211","6.5","11.5","0.00","0.00"
"14:24:57","74.3","44.9","35.1","29.92","198","6.6","16.1","0.00","0.00"
"14:34:56","74.4","48.4","39.9","29.91","185","4.5","10.4","0.00","0.00"
"14:39:45","74.7","45.7","35.9","29.91","169","5.1","11.5","0.00","0.00"
"14:44:57","74.5","44.7","34.5","29.91","197","6.6","15","0.00","0.00"
"14:49:57","74.4","44.3","34.1","29.90","132","4.2","12.7","0.00","0.00"
"14:54:57","74.4","45.7","36","29.90","156","3.4","11","0.00","0.00"
"14:59:57","75.1","44.5","33.6","29.90","131","5.6","11.5","0.00","0.00"
"15:04:59","75.1","43.8","32.8","29.89","152","6.7","16.1","0.00","0.00"
"15:09:59","75","44.2","33.4","29.89","196","6.3","14","0.00","0.00"
"15:14:56","74.9","45.9","35.7","29.89","201","6.6","15","0.00","0.00"
"15:19:56","75.1","45.9","35.5","29.89","205","4.9","13.8","0.00","0.00"
"15:24:36","75.4","44.7","33.6","29.89","197","5.1","11.5","0.00","0.00"
"15:29:16","75.5","47","36.5","29.89","220","4.2","10","0.00","0.00"
"15:34:59","75.6","46.6","35.8","29.89","206","7","13","0.00","0.00"
"15:39:26","75.4","45.4","34.4","29.89","196","5.4","15","0.00","0.00"
"15:44:59","75.3","45.4","34.5","29.89","195","7.5","15","0.00","0.00"
"15:49:52","75.3","46.1","35.6","29.88","181","4.9","13","0.00","0.00"
"15:54:57","75.4","45.1","34.1","29.88","190","7.3","16","0.00","0.00"
"15:59:56","75.6","44.7","33.3","29.88","145","5.2","12","0.00","0.00"
"16:04:59","75.7","43.8","32.2","29.87","127","4.9","11.5","0.00","0.00"
"16:09:59","75.8","45.9","34.6","29.87","181","5","11","0.00","0.00"
"16:14:57","75.9","44.7","33","29.87","175","5.1","11.5","0.00","0.00"
"16:19:57","75.8","43.6","31.6","29.87","173","7","19.6","0.00","0.00"
"16:24:57","75.5","43.7","32.2","29.87","202","7.8","15","0.00","0.00"
"16:29:53","75.5","45.5","34.4","29.87","207","5.2","10.4","0.00","0.00"
"16:34:58","75.7","43.7","32","29.86","197","7.7","15","0.00","0.00"
"16:39:57","75.5","44.5","33.2","29.86","195","4.5","15","0.00","0.00"
"16:44:57","75.7","44.6","33.2","29.86","149","4.8","10.4","0.00","0.00"
"16:49:57","75.8","44.4","32.9","29.86","138","5","12","0.00","0.00"
"16:54:57","76","44.6","32.8","29.86","198","7.6","17.3","0.00","0.00"
"16:59:57","75.7","43.9","32.1","29.86","214","7.8","17.3","0.00","0.00"
"17:04:56","75.5","45.1","33.9","29.85","203","5.9","10.4","0.00","0.00"
"17:09:39","75.7","44.8","33.3","29.85","199","7","14","0.00","0.00"
"17:14:58","75.6","45.4","34.3","29.85","179","5.4","13.8","0.00","0.00"
"17:19:58","75.7","45.3","34","29.85","161","5.2","21","0.00","0.00"
"17:24:58","75.5","44.8","33.5","29.85","203","7.9","20.7","0.00","0.00"
"17:29:56","75.3","44.1","32.9","29.86","184","6.2","14","0.00","0.00"
"17:34:56","75.4","44.5","33.2","29.86","192","7","16.1","0.00","0.00"
"17:39:58","75.2","44.4","33.5","29.86","202","9.4","16.1","0.00","0.00"
"17:44:41","74.9","44.6","34.1","29.86","196","6.8","16.1","0.00","0.00"
"17:49:49","74.5","44.3","33.9","29.85","203","7.4","17","0.00","0.00"
"17:54:57","74.5","44.2","33.9","29.85","196","7.3","17.3","0.00","0.00"
"17:59:57","74.5","44.3","34.1","29.85","201","6.4","16.1","0.00","0.00"
"18:04:11","74.5","44.5","34.4","29.85","195","7.3","16.1","0.00","0.00"
"18:09:59","74.1","44","34.1","29.85","196","7.2","16.1","0.00","0.00"
"18:14:57","74","42.5","32.4","29.85","201","9","16.1","0.00","0.00"
"18:19:56","73.7","43.3","33.6","29.85","190","8","17.3","0.00","0.00"
"18:24:56","73.5","43.3","33.9","29.85","196","6.9","14","0.00","0.00"
"18:29:58","73.3","44","35.1","29.85","200","7.1","13","0.00","0.00"
"18:34:41","73.1","43","33.9","29.84","176","7.4","12.7","0.00","0.00"
"18:39:59","73","43.6","34.8","29.84","182","5.2","12","0.00","0.00"
"18:44:59","72.8","44.4","36.1","29.84","184","5","12","0.00","0.00"
"18:49:58","72.6","43.5","35.1","29.84","188","6.7","19.6","0.00","0.00"
"18:54:58","72.3","43.6","35.7","29.84","189","5.6","13","0.00","0.00"
"18:59:58","72","43.6","36.1","29.84","172","6.5","16.1","0.00","0.00"
"19:04:56","71.6","43.6","36.5","29.84","192","7.6","18.4","0.00","0.00"
"19:09:56","71.3","43.1","36.2","29.84","186","7.8","18.4","0.00","0.00"
"19:14:58","71.2","42.9","36","29.84","194","7.1","16.1","0.00","0.00"
"19:18:58","71.1","43.1","36.5","29.84","191","7.2","15","0.00","0.00"
"19:24:58","70.9","42.7","36.2","29.84","183","6.4","18.4","0.00","0.00"
"19:29:58","70.7","42.7","36.4","29.84","181","5.8","14","0.00","0.00"
"19:34:59","70.4","43","37.2","29.83","191","4.2","12.7","0.00","0.00"
"19:39:57","70.1","42.9","37.4","29.83","197","5.5","13","0.00","0.00"
"19:44:57","69.9","42.5","37.1","29.83","160","5.3","11.5","0.00","0.00"
"19:49:38","69.9","42.9","37.6","29.83","183","3.7","10.4","0.00","0.00"
"19:54:56","69.7","42.5","37.3","29.83","166","3.9","11.5","0.00","0.00"
"19:59:57","69.5","42.4","37.4","29.83","181","4.6","12","0.00","0.00"
"20:04:52","69.2","42.6","38.1","29.83","185","4.9","12","0.00","0.00"
"20:09:56","69","42.5","38.2","29.83","152","4.3","13","0.00","0.00"
"20:14:58","69","42.4","38.2","29.83","169","4.3","10.4","0.00","0.00"
"20:19:59","68.8","42.6","38.7","29.83","184","4.3","8.1","0.00","0.00"
"20:24:56","68.5","42.5","39","29.83","180","3.3","6","0.00","0.00"
"20:29:57","68.3","42.4","39","29.83","167","2.6","5.8","0.00","0.00"
"20:34:58","68.1","42.6","39.7","29.83","174","3.2","7","0.00","0.00"
"20:39:56","67.7","42.8","40.4","29.83","184","3.4","10","0.00","0.00"
"20:44:57","67.4","43.1","41.2","29.83","168","3.2","8.1","0.00","0.00"
"20:49:53","67.3","43","41.3","29.83","172","2.9","8.1","0.00","0.00"
"20:54:38","67.2","43","41.5","29.83","191","3.3","7","0.00","0.00"
"20:59:58","67","43","41.8","29.83","162","3.1","6","0.00","0.00"
"21:04:57","67","43.2","42.2","29.83","159","2.9","9","0.00","0.00"
"21:09:56","66.8","43.3","42.5","29.83","162","4.4","9.2","0.00","0.00"
"21:14:59","66.9","43.2","42.2","29.84","155","3.9","10.4","0.00","0.00"
"21:19:56","66.8","43.6","43","29.84","163","3.9","10.4","0.00","0.00"
"21:24:56","66.7","43.5","43","29.84","161","3.7","9","0.00","0.00"
"21:29:45","66.7","43.7","43.3","29.84","163","5","11.5","0.00","0.00"
"21:34:57","66.8","43.6","43","29.84","165","4","9.2","0.00","0.00"
"21:39:55","66.8","43.9","43.6","29.84","183","4","9","0.00","0.00"
"21:44:56","66.4","43.9","44.1","29.84","183","4.2","10.4","0.00","0.00"
"21:49:56","66.1","43.7","44.3","29.84","177","3.5","9.2","0.00","0.00"
"21:54:53","66","43.7","44.4","29.84","180","4.6","9.2","0.00","0.00"
"21:59:56","65.8","43.6","44.4","29.84","185","4.2","11","0.00","0.00"
"22:04:59","65.7","43.8","45","29.84","188","4.9","11.5","0.00","0.00"
"22:09:59","65.6","43.7","45.1","29.84","183","4.6","10.4","0.00","0.00"
"22:14:57","65.5","43.6","45","29.84","174","4","15","0.00","0.00"
"22:19:58","65.6","43.9","45.3","29.84","183","5","10.4","0.00","0.00"
"22:24:58","65.6","43.9","45.3","29.84","177","4.9","13","0.00","0.00"
"22:29:59","65.6","43.9","45.3","29.84","174","4.2","11.5","0.00","0.00"
"22:34:39","65.4","44.3","46.4","29.84","183","2.9","5.8","0.00","0.00"
"22:38:45","65.1","44","46.3","29.84","189","4.1","9.2","0.00","0.00"
"22:44:58","64.9","43.9","46.5","29.84","186","3.5","10.4","0.00","0.00"
"22:49:26","64.8","44.1","47.1","29.84","167","3.2","10.4","0.00","0.00"
"22:54:59","64.5","44.2","47.7","29.84","171","4","10.4","0.00","0.00"
"22:59:56","64.5","44.4","48","29.84","200","4.7","11","0.00","0.00"
"23:04:59","64.3","44.1","47.8","29.84","195","5.1","12","0.00","0.00"
"23:09:34","64.3","44.1","47.9","29.84","186","4","11.5","0.00","0.00"
"23:14:57","64.2","44.2","48.1","29.84","176","3.7","8.1","0.00","0.00"
"23:19:58","64","44","48.1","29.83","174","3.9","7","0.00","0.00"
"23:24:58","63.9","44.2","48.6","29.83","187","4.1","13","0.00","0.00"
"23:29:59","63.9","44.2","48.6","29.83","189","4.4","10.4","0.00","0.00"
"23:34:59","63.7","44.3","49.2","29.83","190","4.9","9","0.00","0.00"
"23:39:58","63.6","44.2","49.2","29.83","191","4.7","11","0.00","0.00"
"23:44:59","63.5","44.1","49.3","29.83","194","4.3","10.4","0.00","0.00"
"23:49:59","63.3","44.3","50","29.83","194","4.6","7","0.00","0.00"
"23:54:55","63.1","44.2","50","29.83","184","3.7","9.2","0.00","0.00"
"23:59:56","62.9","44.3","50.8","29.83","188","3.1","8.1","0.00","0.00"
